Tracking 20369 objects as of 19-Feb-2020
HD Live streaming from Space Station
objects crossing your sky now

LEMUR 1

Track LEMUR 1 now!
10-day predictions
LEMUR 1 is classified as:


NORAD ID: 40044
Int'l Code: 2014-033AL
Perigee: 612.9 km
Apogee: 696.9 km
Inclination: 97.7 °
Period: 97.7 minutes
Semi major axis: 7025 km
RCS: Unknown
Launch date: June 19, 2014
Source: United States (US)
Launch site: Orenburg, Russia (OREN)
aabbcc
Your satellite tracking list
Your tracking list is empty




NASA's NSSDC Master Catalog

Two Line Element Set (TLE):
1 40044U 14033AL  20049.86530808 +.00000112 +00000-0 +23884-4 0  9999
2 40044 097.7252 271.2197 0059793 028.3225 332.1213 14.74174613304291
Source of the keplerian elements: AFSPC